Flag Weather past 2 weeks in Daly City, California, U.S.A.

Now
51 °F

Clear.


Feels Like: 51 °F
Forecast: 51 / 60 °F
Wind: No wind

Location: San Francisco International Airport

Current Time: Nov 24, 2014 at 1:51:23 AM

Latest Report: Nov 24, 2014 at 12:56 AM


Visibility: 10 mi

Pressure: 30.32 "Hg

Humidity: 83%

Dew point: 46 °F

Location of Daly CityLocation

Historic Weather in Daly City — Graph

°F

Daly City temperature yesterday

Maximum temperature yesterday: 65 °F (at 3:56 PM)
Minimum temperature yesterday: 50 °F (at 5:56 AM)
Average temperature yesterday: 57 °F

Past Weeks' High & Low Weather Summary

 TemperatureHumidityPressure
High68 °F (Nov 10, 1:56 PM)100% (Nov 9, 12:56 AM)30.34 "Hg (Nov 9, 12:56 AM)
Low50 °F (Nov 23, 5:56 AM)27% (Nov 16, 12:56 PM)29.79 "Hg (Nov 10, 1:56 PM)
Average60 °F77%30.06 "Hg
* Reported Nov 9 12:56 AM — Nov 24 12:56 AM, Daly City, Weather by CustomWeather, © 2014

Note: Actual official high and low records may vary slightly from our data, if they occured in-between our weather recording intervals... More about our weather records

Advertising

Daly City weather history for previous 24 hours

 ConditionsComfort  
Time TempWeatherWind HumidityBarometerVisibility
12:56 AM
Nov 24
51 °FClear.No wind83%30.32 "Hg10 mi
11:56 PM
Nov 23
52 °FClear.5 mph80%30.33 "Hg10 mi
10:56 PM53 °FClear.No wind80%30.33 "Hg10 mi
9:56 PM53 °FClear.3 mph80%30.32 "Hg10 mi
8:56 PM56 °FPassing clouds.5 mph81%30.30 "Hg10 mi
7:56 PM56 °FPassing clouds.8 mph84%30.29 "Hg10 mi
6:56 PM57 °FPassing clouds.9 mph81%30.29 "Hg10 mi
5:56 PM58 °FPassing clouds.14 mph72%30.28 "Hg10 mi
4:56 PM60 °FPassing clouds.13 mph65%30.27 "Hg10 mi
3:56 PM65 °FPartly sunny.3 mph49%30.27 "Hg10 mi
2:56 PM63 °FPartly sunny.No wind60%30.27 "Hg10 mi
1:56 PM63 °FBroken clouds.3 mph54%30.27 "Hg10 mi
12:56 PM61 °FBroken clouds.No wind58%30.29 "Hg10 mi
11:56 AM62 °FPartly sunny.3 mph58%30.31 "Hg10 mi
10:56 AM61 °FScattered clouds.5 mph60%30.34 "Hg10 mi
9:56 AM60 °FScattered clouds.6 mph58%30.34 "Hg10 mi
8:56 AM59 °FPassing clouds.3 mph64%30.32 "Hg10 mi
7:56 AM56 °FScattered clouds.No wind77%30.30 "Hg10 mi
6:56 AM52 °FPassing clouds.No wind89%30.29 "Hg10 mi
5:56 AM50 °FClear.3 mph89%30.30 "Hg10 mi
4:56 AM55 °FClear.8 mph87%30.29 "Hg10 mi
3:56 AM53 °FClear.No wind83%30.27 "Hg10 mi
2:56 AM51 °FClear.3 mph86%30.27 "Hg10 mi
1:56 AM51 °FClear.6 mph89%30.25 "Hg10 mi
Weather by CustomWeather, © 2014

See weather overviewHow to use our weather pages